Helicity
96 30 72 57 1 -6 -2 2 11 8 3 3 1 10 28 76 38 54 75 27 42 30 23 17 94 133 124 167 144 114 154 172 115 54 13 6 17 -8 -18 -35 -38 -49 -11 12 48 47 31 32 17
94 68 39 24 -23 -12 19 12 82 56 17 14 17 44 64 53 95 78 137 60 92 41 -10 -1 75 81 105 137 138 106 95 133 171 120 50 10 9 18 -14 -31 -31 -17 8 32 68 69 39 22 21
86 65 29 15 15 52 22 107 76 32 22 34 22 11 34 36 89 83 104 75 56 31 -19 -4 1 30 58 80 128 105 76 84 112 175 125 37 10 15 -1 -18 -16 5 35 51 64 68 60 34 23
17 41 26 6 41 68 95 76 63 60 29 -5 47 24 38 59 51 92 54 44 25 21 -32 -56 -55 -37 -29 37 66 92 74 62 39 96 200 144 20 13 12 11 2 27 64 49 51 49 67 49 -6
27 12 11 31 50 35 60 49 46 76 72 63 48 96 71 44 28 101 -14 -1 -28 -22 -16 -5 -14 -91 -91 -54 13 48 55 52 41 15 111 184 85 15 32 37 55 61 91 59 37 37 54 52 1
14 11 3 17 68 34 26 28 28 43 67 44 65 61 108 94 177 62 -9 -9 3 18 13 34 66 47 -63 -90 -50 14 31 35 36 22 20 162 237 29 39 36 82 86 102 83 36 35 35 23 20
29 47 26 71 75 29 41 20 59 65 39 68 55 35 134 232 108 82 42 9 61 109 91 74 49 81 81 -44 -120 -12 20 14 37 -15 -32 107 190 147 43 49 105 118 132 99 57 43 28 13 16
26 34 38 58 56 68 48 25 42 49 75 59 33 70 121 115 79 72 111 126 135 140 97 76 97 55 61 36 -125 -59 33 37 -11 43 24 55 228 374 55 37 106 131 142 120 93 61 36 19 14
34 49 55 44 56 71 59 35 43 40 34 30 31 43 50 67 55 80 84 111 117 112 110 87 107 103 87 64 -67 -115 -1 35 32 -36 5 -108 80 316 261 58 115 140 144 129 93 68 78 69 31
57 57 62 73 90 83 62 45 17 34 15 14 37 41 101 93 36 74 88 121 130 97 94 125 120 114 73 42 7 -89 -109 -42 -75 -28 -33 -117 15 208 243 215 119 178 155 111 83 54 86 92 67
61 62 78 84 94 79 52 18 35 39 25 44 78 87 112 92 107 135 120 149 156 135 114 131 134 121 59 27 -15 -43 -39 -56 -30 -80 -48 -27 -29 124 201 292 96 209 169 158 143 143 106 54 65
77 87 79 86 82 73 52 38 30 40 73 35 85 76 91 56 140 155 119 127 139 147 125 142 145 115 75 31 -33 -39 -24 -16 -21 -42 -67 -181 -128 100 222 423 483 213 221 193 197 153 100 44 59
86 63 72 93 78 51 40 42 58 43 2 37 79 117 74 145 181 157 108 135 134 148 139 143 124 105 75 42 -28 -56 -42 -18 23 -51 -121 -237 -137 -74 235 318 507 322 206 211 195 151 108 66 74
75 61 61 70 60 54 51 59 75 36 57 63 90 133 125 187 134 116 86 97 105 135 141 133 132 84 69 60 1 -39 -59 -38 8 22 -89 -237 -251 -81 -37 342 573 540 463 198 207 182 120 86 110
65 39 49 54 62 69 96 49 43 50 94 108 100 82 134 183 116 119 93 83 91 108 116 133 108 78 66 55 31 -16 -59 -38 -23 7 19 -101 -247 -171 14 75 298 538 610 410 240 186 118 144 149
44 61 49 100 87 92 87 65 52 95 105 124 94 102 149 217 162 127 87 82 90 88 106 115 85 67 52 55 73 7 -22 -32 -51 -42 -24 92 -204 -326 -237 -86 89 424 726 494 229 216 156 195 159
50 45 47 68 60 97 90 85 52 205 186 116 109 151 215 218 155 137 93 85 92 88 102 109 88 68 56 46 60 37 5 -40 -50 -51 -30 24 -2 -333 -336 -106 -62 121 337 545 340 265 218 214 181
61 63 86 41 78 125 108 193 150 103 162 144 168 213 226 172 146 163 89 85 90 88 94 105 98 54 40 41 53 46 19 -4 -40 -40 -35 -39 134 -134 -340 -115 -130 -139 422 560 544 285 282 243 203
107 97 80 87 180 149 115 103 148 139 153 122 153 248 224 174 194 132 89 85 79 91 101 107 106 84 43 37 31 44 25 17 -17 -13 3 -61 -8 86 -139 -229 -110 -214 73 374 557 575 323 285 242
91 80 78 92 154 85 72 85 148 42 56 89 176 251 183 177 161 125 94 87 87 84 110 95 103 98 66 45 22 21 35 15 21 -19 -24 -34 -20 67 15 -116 -155 -147 -93 116 385 623 312 330 297
85 89 116 107 104 36 82 33 50 121 156 162 214 211 171 167 133 148 103 88 91 112 102 91 88 90 91 57 44 18 30 36 -2 -25 -44 -30 8 1 68 80 -98 -188 -10 -65 246 395 646 357 317
118 144 145 111 122 112 125 95 100 124 134 133 169 162 182 163 150 151 118 81 102 106 102 81 76 75 80 74 58 71 19 47 41 3 -30 -22 -16 29 43 71 118 -80 -247 -92 -114 185 413 304 451
155 148 133 149 142 177 103 208 26 140 91 125 141 132 157 122 156 113 105 108 87 87 82 76 76 76 73 73 65 81 69 30 62 33 24 -12 -14 28 57 52 123 13 -264 -139 -80 15 146 356 284
188 147 141 132 132 214 99 192 99 112 91 141 172 187 171 156 198 163 165 126 71 93 69 77 74 67 68 69 67 69 75 52 48 61 31 2 -16 0 26 57 64 231 -86 -86 -45 -41 -23 171 154
220 176 175 155 193 174 242 250 195 189 155 189 173 198 221 266 237 197 200 130 111 74 59 68 86 68 62 57 59 65 58 64 46 55 48 46 26 -14 0 59 87 112 186 47 -5 3 -12 70 212
171 219 208 161 226 237 291 243 122 162 170 244 239 234 270 287 257 218 221 200 138 95 71 73 80 77 71 68 63 55 60 64 64 49 58 50 34 25 0 11 51 94 83 145 207 -24 -35 59 96
208 246 222 267 237 275 260 263 209 207 179 166 153 188 210 263 217 215 230 236 204 149 100 86 95 92 81 71 63 62 56 58 59 59 52 53 49 39 26 21 24 44 86 78 155 242 50 76 82
318 267 301 280 198 181 196 198 245 202 49 145 157 93 122 207 180 226 233 258 261 207 162 129 112 106 98 72 66 60 54 46 46 44 48 57 58 61 54 28 33 27 41 64 66 163 313 196 129
333 365 302 293 339 269 261 271 219 165 214 172 147 111 144 166 176 238 303 296 311 298 236 155 122 121 115 97 84 65 61 51 45 42 39 41 58 61 77 55 24 52 30 49 87 98 196 239 254
319 302 414 347 272 377 423 369 241 298 255 178 174 181 160 139 157 259 340 376 366 333 287 202 155 159 139 117 104 79 58 51 45 42 39 31 45 70 66 77 71 29 68 43 65 101 113 216 337
Wind_Speed
25 27 28 28 30 31 29 31 35 36 36 37 40 41 38 39 39 34 31 49 55 55 56 57 58 57 56 56 53 52 50 48 46 51 46 32 28 32 32 31 29 23 17 12 26 26 3 4 17
25 28 31 33 30 28 29 33 33 36 37 13 38 41 37 35 43 34 38 54 57 59 58 59 60 59 58 57 56 54 52 51 49 48 54 45 36 29 35 35 32 22 17 12 18 24 11 6 11
27 26 26 11 28 29 29 32 34 35 38 40 37 38 38 36 42 34 47 54 59 61 60 62 63 62 61 59 57 56 55 53 52 49 50 57 45 36 35 36 32 21 14 11 11 17 18 12 13
28 28 26 30 30 33 32 33 35 35 35 39 45 35 36 37 35 40 51 58 62 63 62 64 65 65 63 63 60 58 57 56 54 54 53 51 56 43 38 36 34 21 11 16 15 14 13 12 24
29 28 28 29 33 31 34 35 36 37 36 42 45 41 39 36 35 52 56 61 63 64 64 66 67 67 66 65 64 61 59 58 56 55 56 56 62 49 35 33 27 21 15 17 20 20 15 15 27
30 31 29 29 29 32 33 37 35 34 37 40 38 41 36 35 50 59 60 61 61 62 64 68 71 71 70 69 65 64 61 60 58 56 57 59 60 63 44 36 26 22 21 17 23 23 22 26 27
30 33 31 32 29 31 32 38 39 39 36 39 37 38 29 48 58 60 61 60 59 62 64 69 72 75 73 71 67 66 65 63 61 58 57 58 59 65 47 38 27 23 21 22 23 24 28 30 35
31 33 30 35 31 33 32 36 36 40 35 40 36 33 32 56 59 62 62 57 60 64 67 70 72 75 76 72 65 66 66 64 63 60 56 55 57 60 67 49 32 26 23 23 25 27 28 34 37
33 33 32 33 32 33 33 34 35 33 32 34 33 35 39 50 57 58 57 57 59 64 66 71 74 77 78 73 67 66 65 65 64 61 57 53 55 59 65 72 43 33 28 25 28 29 28 32 38
35 32 33 35 35 34 34 33 38 37 39 35 32 24 39 49 55 57 59 59 62 65 70 75 75 77 78 72 69 65 64 63 63 61 58 53 58 54 59 61 52 37 32 30 28 30 32 29 38
37 33 29 33 34 35 34 35 29 31 39 32 38 43 46 52 52 56 59 58 61 64 69 72 75 73 75 72 67 64 65 64 63 62 61 61 60 52 52 53 61 45 39 35 30 27 35 36 36
33 32 33 33 33 32 33 35 33 21 16 32 34 37 43 42 48 53 56 57 61 65 69 71 71 69 68 69 65 63 64 65 66 65 61 56 57 58 49 52 57 52 47 43 38 35 32 41 37
35 31 31 32 31 29 29 27 26 20 20 29 30 32 35 45 49 51 55 57 64 65 68 70 68 66 66 69 67 63 63 64 67 67 63 56 54 53 58 53 54 58 52 50 46 41 39 39 37
33 34 33 33 33 32 35 34 36 34 33 15 25 31 38 46 50 53 55 59 61 62 65 65 64 60 58 60 69 66 65 63 64 66 62 59 57 61 55 54 57 57 56 59 53 46 43 46 36
35 41 35 31 32 39 44 40 25 18 30 30 28 33 38 44 49 52 53 54 56 58 58 61 57 54 52 52 70 68 65 65 62 63 63 64 60 62 62 58 54 57 62 65 54 51 48 44 41
38 40 47 35 33 37 45 53 38 24 22 28 31 37 36 44 46 47 48 51 54 54 57 57 55 52 49 49 61 68 66 66 63 64 67 70 67 61 58 59 68 61 60 59 59 52 51 45 44
37 50 49 46 31 42 39 53 50 29 27 30 31 31 40 42 41 42 46 49 51 53 55 54 54 52 50 46 46 68 65 63 63 64 65 66 69 67 71 68 61 60 63 57 65 55 53 49 45
45 49 49 56 39 40 44 35 44 36 33 37 35 35 34 38 38 41 43 45 48 49 50 52 53 50 47 41 44 63 64 62 65 66 67 68 69 68 72 67 58 59 54 57 57 70 57 53 47
45 52 56 57 49 57 54 51 55 52 43 38 31 30 31 33 34 37 39 42 45 47 48 52 52 51 48 43 44 54 66 65 64 68 67 63 68 71 72 70 71 66 64 62 62 63 63 59 52
50 58 60 55 49 63 63 66 44 56 41 29 26 25 24 28 32 32 37 41 44 46 51 51 52 51 47 44 38 37 63 63 67 65 64 66 67 71 73 77 76 73 66 63 60 55 73 64 61
54 59 61 64 70 63 70 73 57 47 40 34 30 23 22 25 29 32 34 39 42 47 50 49 49 50 49 48 39 37 48 62 62 66 69 70 72 72 73 75 77 77 77 69 62 61 62 75 68
64 55 56 63 73 76 67 90 72 48 41 34 31 23 23 25 29 32 34 37 41 45 46 48 50 51 52 50 47 40 39 62 66 70 72 73 73 75 73 73 76 76 80 76 72 67 64 77 79
56 52 59 63 69 78 71 68 59 46 48 36 28 19 22 21 24 27 30 35 39 42 46 47 48 50 51 52 50 46 39 42 66 70 74 74 72 72 73 73 72 73 80 80 77 75 73 68 83
43 55 59 62 64 84 61 57 63 48 52 41 25 20 19 20 24 27 29 34 37 41 44 47 48 50 51 53 54 51 47 42 55 69 73 75 74 76 76 76 77 76 75 79 82 77 77 76 84
50 58 78 85 78 83 55 65 58 51 45 41 28 23 20 21 23 26 30 34 33 38 43 46 48 50 52 54 56 56 53 50 48 63 69 77 79 78 80 82 82 81 78 85 88 88 85 86 78
47 52 67 90 86 84 62 74 64 46 42 34 29 28 26 24 25 28 32 34 35 37 42 46 48 50 52 55 58 58 58 55 55 55 68 73 79 81 81 83 83 86 85 87 89 89 92 90 86
49 56 50 67 71 85 72 68 62 44 41 33 33 34 33 31 32 33 35 36 36 37 40 44 47 50 52 55 57 60 60 61 61 63 64 70 76 81 84 85 88 87 89 91 93 92 93 93 92
46 40 57 54 80 89 76 77 71 53 47 38 38 39 39 40 41 39 37 38 37 37 39 42 45 49 51 54 56 60 63 64 66 67 72 73 75 79 86 88 90 90 92 94 96 97 97 100 94
48 54 50 55 60 79 96 80 47 53 46 42 45 44 43 41 42 42 42 40 38 37 39 41 44 46 49 53 57 61 65 68 69 72 72 76 78 79 82 88 90 93 94 95 96 100 101 100 101
51 54 48 64 69 64 75 89 57 54 42 51 57 51 47 46 47 45 43 41 39 40 40 42 42 45 46 49 57 61 64 68 72 74 76 77 80 80 81 85 90 92 95 95 97 101 101 101 100
Wind_Direction
226 213 195 191 4 38 15 2 38 30 24 350 346 352 7 350 338 336 17 346 338 335 329 331 330 329 328 328 323 321 318 313 306 273 274 301 301 276 263 244 239 255 295 286 39 40 279 222 185
225 182 147 145 25 28 12 34 11 5 12 341 23 336 11 13 12 21 355 336 335 336 337 330 326 327 326 324 324 318 317 310 307 297 268 277 285 292 264 249 245 280 299 335 31 40 357 281 214
199 220 175 240 328 358 11 5 19 35 22 356 12 21 12 18 10 24 345 333 333 336 341 332 328 323 323 322 319 318 314 311 303 299 293 263 274 280 273 258 257 281 305 330 317 17 20 250 227
297 198 239 354 20 353 24 18 5 15 33 21 340 20 29 18 21 4 347 336 332 336 341 340 334 327 320 318 316 313 312 309 305 296 289 287 264 273 272 268 259 275 321 286 293 301 330 298 218
304 301 338 16 5 18 12 13 13 4 11 356 348 350 8 24 37 356 348 339 338 337 339 340 337 331 324 315 311 308 307 307 303 300 290 282 263 268 274 273 271 272 287 288 275 269 293 296 232
347 353 345 11 15 10 15 3 10 13 5 1 359 355 12 35 352 347 350 345 347 344 343 341 336 333 324 315 307 304 301 301 301 300 292 283 274 258 266 268 268 268 271 281 271 268 268 258 250
352 327 332 347 9 8 7 360 356 355 5 360 5 358 17 355 350 351 350 350 351 349 348 345 341 333 325 315 304 300 297 294 294 294 298 287 278 264 262 263 262 261 266 268 269 270 261 256 242
357 351 352 340 358 359 10 4 4 353 3 360 7 5 1 340 348 347 348 355 352 350 348 346 348 340 329 315 305 295 293 291 288 289 295 286 282 272 254 258 255 253 258 263 264 266 265 252 245
17 347 344 352 359 1 10 6 12 11 2 360 359 353 349 347 347 351 354 354 354 349 350 348 349 343 331 318 306 294 288 288 284 285 287 290 288 276 265 252 253 249 253 257 260 263 265 260 247
352 347 347 352 1 359 7 8 359 1 355 358 360 16 0 351 349 350 350 352 352 348 346 349 349 345 334 323 305 293 284 284 282 280 281 285 281 281 273 266 250 244 247 253 257 257 260 262 251
347 346 6 359 2 1 1 2 9 5 356 9 358 350 350 346 349 349 349 353 353 351 347 349 351 351 339 329 308 293 284 279 279 275 279 277 279 289 273 274 252 245 244 249 252 256 255 257 256
349 358 358 1 1 5 1 1 1 1 357 353 359 357 353 356 352 352 352 353 352 350 347 349 353 353 349 333 310 293 284 277 273 272 275 279 277 283 280 276 273 244 244 245 248 251 255 252 255
347 358 360 1 2 3 1 358 357 345 349 352 353 355 356 352 352 353 351 352 349 351 350 349 353 354 352 334 309 294 286 279 274 269 268 274 277 276 276 278 274 260 244 243 244 247 250 253 252
351 349 352 354 355 357 352 352 354 358 0 356 351 350 349 347 348 349 351 351 352 353 352 353 354 357 356 346 312 295 283 281 274 270 265 272 274 269 274 279 272 274 262 243 241 242 245 249 250
349 335 346 349 354 348 347 345 351 355 356 358 354 348 347 347 348 349 352 356 357 357 358 358 359 1 0 355 317 300 285 277 276 271 270 268 274 273 274 274 275 275 271 258 234 239 243 244 247
340 337 328 346 351 350 347 333 349 354 348 344 344 341 342 344 348 351 355 357 358 360 1 1 2 3 3 358 336 302 291 276 275 275 271 271 267 273 275 275 274 275 278 263 238 233 237 239 244
339 322 326 331 348 342 342 332 341 345 337 331 332 335 337 340 348 353 355 357 359 1 1 3 4 5 4 2 356 310 298 282 275 277 273 273 268 269 269 274 276 271 274 266 251 231 234 235 240
324 325 328 324 338 337 331 320 325 321 311 313 325 330 336 339 345 350 353 358 0 3 4 5 6 7 7 8 2 326 302 290 278 273 273 271 269 269 270 270 268 265 280 271 262 240 233 234 236
326 322 320 324 334 328 327 327 327 324 316 313 320 329 334 338 348 351 354 358 1 3 5 4 5 7 9 9 5 349 305 295 281 275 272 273 273 274 272 270 267 275 272 272 266 260 228 233 232
319 317 318 326 333 328 327 325 322 328 328 318 320 327 330 340 345 350 352 355 359 1 1 3 4 6 9 10 9 4 320 300 286 277 277 275 276 272 272 269 271 263 261 267 264 268 240 234 229
315 315 317 317 321 325 324 323 334 336 337 336 338 331 330 334 340 345 349 353 357 357 359 3 5 5 8 8 10 7 353 311 293 282 277 276 273 274 273 273 267 261 260 268 264 268 264 232 232
310 321 321 319 319 316 332 314 324 327 328 324 326 323 326 332 337 340 344 349 354 355 359 1 3 4 5 7 8 9 2 327 302 286 279 278 276 275 274 275 270 267 260 264 262 264 269 250 230
312 321 319 319 316 315 319 315 326 333 325 318 318 307 317 323 331 334 340 346 351 354 355 358 0 2 4 4 6 7 5 355 316 294 282 279 277 277 276 272 272 269 266 265 266 263 262 268 240
322 319 318 318 317 309 316 314 321 325 328 327 319 308 310 318 327 331 337 342 346 351 352 353 356 357 359 0 0 1 3 360 342 308 288 280 279 278 276 277 274 273 268 267 266 268 262 266 249
313 313 309 307 308 308 319 312 311 321 327 328 323 312 310 314 318 324 326 331 340 343 347 348 350 351 353 354 355 355 356 357 353 330 303 286 280 278 275 278 275 273 271 265 263 262 261 258 260
307 310 307 303 306 308 313 308 318 330 331 327 324 316 313 309 310 314 318 321 327 335 340 343 343 344 346 347 348 349 349 350 348 344 320 297 283 279 279 277 277 272 269 267 266 262 257 260 261
309 302 314 308 309 305 306 310 314 317 319 321 316 312 306 307 307 309 311 312 318 327 333 338 338 338 340 340 341 342 343 342 341 337 332 313 294 284 280 280 276 274 271 267 264 261 259 261 260
307 315 308 309 305 303 306 306 308 319 317 314 309 305 304 307 310 309 309 306 310 318 327 333 334 333 333 333 335 335 335 336 333 332 325 320 307 294 284 280 277 276 272 266 263 263 263 260 261
299 299 303 306 302 302 304 307 324 321 315 314 313 309 308 304 304 304 308 307 305 312 319 325 328 328 329 329 329 328 329 329 328 326 323 317 312 303 292 283 279 277 274 270 268 264 264 263 262
298 295 290 295 300 298 302 299 317 319 321 317 312 310 310 308 308 305 304 306 303 304 310 315 322 323 325 325 324 324 324 324 324 323 321 318 312 307 300 290 282 278 275 272 268 265 263 262 261